Location: Winthrop
(48.4780°N, 120.1850°W)
Time: 14:42:08
(UTC-07:00)

Vanguard 3 - Pass Details

Date: 09 February 2023
Orbit: 508 x 3249 km, 33.3° (Epoch: 22 March)

Event Time Altitude Azimuth Distance (km) Brightness Sun altitude
Rises 18:36:23 0° 240° (WSW) 3,718 11.8 -14.3°
Reaches altitude 10° 18:38:51 10° 230° (SW) 3,054 10.9 -14.7°
Maximum altitude 18:45:39 33° 169° (S) 2,490 9.5 -15.8°
Enters shadow 18:54:43 14° 118° (ESE) 4,457 10.4 -17.3°
